Starlink 31015

operational
NORAD ID: 58521 Int'l Des: 2023-191 Owner: SPXS Country: US Constellation: starlink
LEOCIRCULAR

Starlink 31015について

説明を読み込み中...

リアルタイム位置

3D地球を読み込み中...

次回通過

高度履歴

Altitude vs Time

uPlot chart will show altitude changes over time

軌道要素

1 58521U 23191P 25257.54456725 .00000783 00000-0 73019-4 0 9998
2 58521 43.0051 343.1842 0001229 273.7408 86.3294 15.02538761 98913
Epoch: Sep 14, 2025 • Age: 22 hours

現在のステータス

高度 564.2 km
速度 7.58 km/s
衛星直下点 -23.77°S, 146.79°E
打ち上げ日 Dec 7, 2023
運用期間 1.7 years
タイプ internet

技術仕様

分類 Payload
質量 730.00 kg
乾燥質量 700.00 kg
総質量 730.00 kg
長さ 0.30 m
直径 4.10 m
スパン 29.00 m
形状 Box + pan
製造者 SPXS
バスタイプ Starlink V2M
フェーズステータス In Orbit
所有者/国 SPXS/US

大規模コンステレーション

Loading constellations...